www.pogodaiklimat.ru

Погода и климат >> Архив погоды >> Канада >> Нунавут >> Йоа-Хейвен


ПОГОДА в Йоа-Хейвен

  • Прогноз погоды в Йоа-Хейвен
  • Монитор погоды в Йоа-Хейвен

АРХИВ ПОГОДЫ в Йоа-Хейвен

Время (UTC), дата Ветер
(напр.,м/с)
 
Видим.   Явления Облачность Т
(С)
Тd
(С)
f
(%)
Тe
(С)
Тes
(С)
Комфортность P
(гПа)
Po
(гПа)
Тmin
(С)
Tmax
(С)
R
(мм)
R24
(мм)
S
(см)
18 18.05 СЗ 3 16 км 10/10 200 м
[]
-8.2 -8.7 96 -14 -14 1033.3 1026.9 -11.9 -8.2
21 18.05 СЗ 2 16 км 10/10 300 м
[]
-7.2 -7.5 98 -12 -12 1033.4 1027.0
00 19.05 С 2 3200 м дымка 9/9 200 м
[]
-7.1 -7.5 97 -12 -12 1033.3 1026.9 -11.9 -6.8
03 19.05 С 3 16 км ясно -9.6 -10.1 96 -16 -16 1032.7 1026.3
06 19.05 С 3 1600 м дымка 10/10 200 м
[]
-11.0 -11.7 95 -16 -16 1032.7 1026.3 -11.9 -6.8
09 19.05 СВ 2 300 м переохл. туман н/о -10.4 -11.1 95 -14 -14 1032.3 1026.0
12 19.05 СЗ 1 16 км 10/10 100 м
[]
-9.9 -10.6 95 -10 -10 1032.5 1026.2 -11.7 -6.8
15 19.05 В 2 16 км 10/10 100 м
[]
-8.6 -9.1 96 -12 -12 1031.7 1025.4
18 19.05 ЮВ 3 16 км слаб. снег 10/10 100 м
[]
-7.7 -8.2 96 -13 -13 1031.0 1024.7 -11.7 -7.6
21 19.05 Ю 3 16 км слаб. снег 10/10 200 м
[]
-6.6 -7.0 97 -12 -12 1030.2 1023.9
00 20.05 ЮВ 3 16 км 10/10 100 м
[]
-6.0 -6.3 98 -12 -12 1029.3 1023.0 -11.0 -5.9
03 20.05 ЮВ 5 16 км слаб. снег 10/10 100 м
[]
-6.9 -7.3 97 -14 -14 1027.9 1021.6
06 20.05 В 4 16 км слаб. снег 10/10 1500 м
[]
-7.5 -7.9 97 -14 -14 1027.0 1020.7 -11.0 -5.9
09 20.05 В 4 16 км 10/10 1500 м
[]
-7.4 -7.8 97 -14 -14 1025.7 1019.4
12 20.05 В 4 16 км 10/10 600 м
[]
-6.9 -7.3 97 -13 -13 1024.8 1018.5 -7.7 -5.9
15 20.05 СВ 5 16 км 10/10 1500 м
[]
-6.6 -7.0 97 -14 -14 1023.9 1017.6
18 20.05 СВ 7 16 км ясно -5.2 -5.7 96 -14 -9 1023.1 1016.8 -7.8 -5.2
21 20.05 СВ 7 16 км 10/10 300 м
[]
-4.6 -5.6 93 -13 -13 1022.7 1016.4
00 21.05 СВ 8 16 км 10/10 300 м
[]
-5.8 -6.9 92 -15 -15 1022.8 1016.5 -7.7 -4.1
03 21.05 С 8 16 км 10/10 300 м
[]
-7.2 -8.3 92 -17 -17 1022.5 1016.2
06 21.05 С 8 16 км слаб. снег 10/10 200 м
[]
-8.6 -9.2 95 -18 -18 1022.7 1016.4 -8.6 -4.1 51
09 21.05 С 6 12 км слаб. снег 10/10 200 м
[]
-8.5 -9.0 96 -17 -17 1023.3 1017.0
12 21.05 СВ 4 16 км слаб. снег 10/10 600 м
[]
-8.7 -9.4 95 -16 -16 1024.0 1017.7 -8.8 -4.1
15 21.05 С 4 14 км слаб. снег 10/10 600 м
[]
-8.4 -9.4 92 -15 -15 1024.4 1018.1
18 21.05 С 5 16 км слаб. снег 9/9 200 м
[]
-8.4 -9.9 89 -16 -15 1024.6 1018.3 -9.0 -7.7
21 21.05 СВ 4 4800 м слаб. снег 10/10 200 м
[]
-7.6 -8.7 92 -14 -14 1025.1 1018.8
00 22.05 СВ 4 6000 м слаб. снег 10/10 600 м
[]
-8.4 -9.8 90 -15 -15 1025.9 1019.6 -9.0 -7.4
03 22.05 С 2 16 км слаб. снег 10/10 600 м
[]
-8.4 -9.2 94 -12 -12 1026.7 1020.4
06 22.05 С 2 16 км 10/10 300 м
[]
-8.4 -9.4 92 -12 -12 1027.5 1021.2 -9.0 -7.4 7
09 22.05 С 6 16 км 10/10 300 м
[]
-7.7 -8.8 92 -16 -16 1028.3 1022.0
12 22.05 СЗ 5 16 км 10/10 1000 м
[]
-7.6 -8.6 93 -15 -15 1029.2 1022.9 -8.8 -7.4
15 22.05 СЗ 5 16 км 10/10 600 м
[]
-5.3 -6.5 91 -13 -13 1028.9 1022.6
18 22.05 СВ 4 16 км слаб. снег 10/10 600 м
[]
-4.0 -4.9 93 -10 -10 1028.2 1021.9 -8.8 -3.9
21 22.05 С 5 16 км ясно -4.3 -5.6 91 -11 -9 1027.4 1021.1
00 23.05 С 10 16 км 10/10 300 м
[]
-3.6 -4.3 95 -13 -13 1026.5 1020.2 -8.6 -2.5
03 23.05 С 9 16 км 10/10 600 м
[]
-4.2 -4.5 98 -14 -14 1025.1 1018.8
06 23.05 С 9 16 км 10/10 300 м
[]
-4.1 -4.3 99 -13 -13 1023.9 1017.7 -8.6 -2.5 11
09 23.05 С 9 16 км 10/10 300 м
[]
-4.2 -4.6 97 -14 -14 1023.0 1016.8
12 23.05 С 9 16 км 10/10 600 м
[]
-3.8 -4.4 96 -13 -13 1022.8 1016.6 -4.9 -2.5
15 23.05 С 10 16 км ясно -2.9 -3.9 93 -12 -11 1022.0 1015.8
18 23.05 С 9 16 км ясно -1.8 -3.1 91 -10 -9 1021.0 1014.8 -4.9 -1.8
21 23.05 С 10 16 км ясно -1.9 -2.9 93 -11 -11 1020.2 1014.0
00 24.05 С 9 16 км ясно -3.0 -3.7 95 -12 -12 1019.5 1013.3 -4.9 -1.5
03 24.05 С 9 16 км ясно -5.9 -6.7 94 -16 -16 1018.9 1012.7
06 24.05 С 10 16 км ясно -8.8 -9.4 95 -19 -19 1018.6 1012.4 -8.8 -1.5 111
09 24.05 С 10 4800 м слаб. снег ясно -10.8 -11.5 95 -22 -22 1018.3 1012.1
12 24.05 СЗ 10 11 км слаб. снег ясно -10.9 -12.0 92 -22 -22 1018.1 1011.9 -11.1 -1.5
15 24.05 С 11 16 км ясно -9.5 -10.6 92 -21 -21 1017.9 1011.7
18 24.05 С 10 16 км 5/0
[]
-7.1 -8.7 88 -17 -17 1018.1 1011.8 -11.1 -7.1
21 24.05 СЗ 10 16 км 5/0
[]
-6.0 -7.4 90 -16 -16 1017.6 1011.3
00 25.05 С 7 16 км ясно -6.0 -7.1 92 -15 -15 1017.7 1011.4 -11.1 -5.4
03 25.05 СЗ 7 16 км ясно -7.5 -8.0 96 -17 -17 1017.1 1010.8
06 25.05 СЗ 6 16 км 9/9 100 м
[]
-8.0 -8.5 96 -17 -17 1016.1 1009.9 -11.1 -5.4 161
09 25.05 СЗ 5 16 км 10/10 100 м
[]
-9.7 -10.2 96 -17 -17 1015.4 1009.2
12 25.05 СЗ 6 16 км 9/9 200 м
[]
-8.8 -9.7 93 -17 -17 1014.4 1008.2 -10.8 -5.4
15 25.05 СЗ 8 16 км ясно -7.9 -9.1 91 -17 -14 1013.9 1007.7

 

Местоположение метеостанции Йоа-Хейвен (Нунавут, Канада): широта 46.55 долгота -61.05 высота над уровнем моря 13 м.

В архиве по умолчанию представлена погода в Йоа-Хейвен за последнюю неделю. Архивные данные за месяц целиком и за предыдущие месяцы, начиная с января 2011 года, Вы можете получить, выбрав интересующий диапазон дат из раскрывающегося списка и нажав кнопку "Ввод!".


*Определитесь, кто Вы:
робот инопланетянин человек

Внимание! Время в таблицах - всемирное. Для получения местного времени необходимо прибавить поправку, которая равна -4 ч.

Смотрите также архив погоды в соседних городах и на ближайших метеорологических станциях:

Погода в Четикемпе (Новая Шотландия, Канада) (13 км)
Погода в Норд Маунтин (Новая Шотландия, Канада) (42 км)
Погода в Ингониш Бич (Новая Шотландия, Канада) (51 км)
Погода на Восток Поинт (Остров Принца Эдуарда, Канада) (71 км)
Погода в Сиднее (Новая Шотландия, Канада) (88 км)
Погода в Сидней аэропорту (Новая Шотландия, Канада) (88 км)
Погода на Острове Святого Павла (Новая Шотландия, Канада) (103 км)
Погода в Порт-Хоксбери (Новая Шотландия, Канада) (103 км)
Погода на Острове Авр Окс Мэзон (Квебек, Канада) (111 км)
Погода на Острове Авр Окс Мэзон 2 (Квебек, Канада) (111 км)

Пояснения к столбцам:

Ветер - указаны скорость ветра в м/с - средняя за 10 мин, порывы в срок и между сроками (в фигурных скобках) и направление, откуда дует ветер: С - северный, СВ - северо-восточный, В - восточный, ЮВ - юго-восточный, Ю - южный, ЮЗ - юго-западный, З - западный, СЗ - северо-западный.
Видимость - горизонтальная дальность видимости в метрах или километрах. При видимости от 1 до 10 км при отсутствии осадков обычно наблюдается дымка, при ухудшении видимости до 1 км и менее - туман. В сухую погоду видимость может ухудшаться дымом, пылью или мглою.
Явления - указаны атмосферные явления, наблюдавшиеся в срок или в последний час перед сроком; фигурными скобками обозначены явления, наблюдавшиеся между сроками (за 1-3 часа до срока); квадратными скобками обозначены град или гололедные отложения с указанием их диаметра в мм.
Облачность - указаны через наклонную черту общая и нижняя облачность в баллах и высота нижней границы облаков в метрах; квадратными скобками обозначены формы облаков: Ci - перистые, Cs - перисто-слоистые, Cc - перисто-кучевые, Ac - высококучевые, As - высокослоистые, Sc - слоисто-кучевые, Ns - слоисто-дождевые, Cu - кучевые, Cb - кучево-дождевые. Подробнее классификацию облаков см. в Атласе облаков (PDF).
T - Температура воздуха - температура, измеренная на высоте 2 м над землей.
Td - Температура точки росы - температура, при понижении до которой содержащийся в воздухе водяной пар достигнет насыщения.
f - Относительная влажность воздуха - влажноcть воздуха, измеренная на высоте 2 м над землей.
Te - Эффективная температура - температура, которую ощущает одетый по сезону человек в тени. Характеристика душности погоды. При расчете учитывается влияние влажности воздуха и скорости ветра на теплоощущения человека.
Tes - Эффективная температура на солнце - температура, которую ощущает человек, с поправкой на солнечный нагрев. Характеристика знойности погоды. Зависит от высоты солнца над горизонтом, облачности и скорости ветра. Ночью, в пасмурную погоду, а также при ветре 12 м/с и более поправка равна нулю.
P - Атмосферное давление - приведенное к уровню моря атмосферное давление.
Po - Атмосферное давление - измеренное на уровне метеостанции атмосферное давление.
Tmin - Минимальная температура - минимум температуры воздуха на высоте 2 м над землей.
Tmax - Максимальная температура - максимум температуры воздуха на высоте 2 м над землей.
R - Количество осадков - Количество выпавших осадков за период времени, мм. При наведении курсора мыши на число - период времени, за который выпало указанное количество осадков.
R24 - Количество осадков - Количество выпавших осадков за 24 часа, мм.
S - Снежный покров - Высота снежного покрова, см. При наведении курсора мыши на число - состояние снежного покрова и степень покрытия местности в баллах.